7 * 24
多渠道服务支持
YUNYAO-1 20 是由中国研制的一颗遥感卫星,主要用于对地观测和环境监测。该卫星具备高分辨率成像能力,可应用于资源调查、灾害预警、城市规划等领域。它于近期成功发射,进入预定轨道,标志着中国在遥感技术领域的持续发展。YUNYAO-1 20 的投入使用将进一步提升我国在地球观测和数据获取方面的能力,为相关科学研究和实际应用提供有力支持。
中国
(CN)
| 数据来源 | 国际轨道数据 |
| 星历时间: | 2025-10-28T23:50:37+0800 15小时前 查看轨道信息 |
| 半长轴: | 6906.371km |
| 偏心率: | 0.0004459 |
| 轨道倾角: | 49.978° |
| 近地点辐角 | 83.259° |
| 升交点赤经 | 213.637° |
| 平近点角 | 276.887° |
| 近地点: | 525.156km |
| 远地点: | 531.316km |
| 周期: | 95.199分钟 |
| 每日圈数: | 15.126133 |